sat.trackr.live / text

‹ back to catalog

STARLINK-6344

NORAD 56520 · 2023-065T

PAYLOAD ACTIVE UNKNOWN

§ Identity

Operator
Country
US
Launch date
2023-05-14
Launch site
AFETR
Launch vehicle
Mass (kg)
RCS (m²)

Purposes: comms

External: N2YO · Heavens-Above · Gunter

§ Orbital elements

Epoch: 2026-05-24T23:01:48.269280Z

Period
94.27 min
Inclination
43.0008°
Eccentricity
0.0001025
Mean motion
15.27576450 rev/d
Perigee alt
482.4 km
Apogee alt
483.8 km
Semi-major
6,861.2 km
B*
2.2092e-5
RAAN
141.7918°
Arg perigee
278.0590°
Mean anomaly
82.0146°
Rev number
16,826

§ Raw data

STARLINK-63441 56520U 23065T   26144.95958645  .00000346  00000+0  22092-4 0  99932 56520  43.0008 141.7918 0001025 278.0590  82.0146 15.27576450168261

JSON: /api/v1/satellites/56520 · /tle

For live sub-satellite position, see the globe view (requires WebGL).

§ Visibility from observer

Set your observer location to see the next 7 days of passes ≥ 10°. The values pass through the URL so the page stays shareable.

No JS? Fill the form by hand. The geolocation button needs JavaScript.